Regional Weather Roundup
Issued by NWS

Home | Current Version | Previous Version | Graphics & Text | Print | Product List | Glossary On
Versions: 1 2 3 4 5 6 7 8 9 10 11 12 13 14 15 16 17 18 19 20 21 22 23 24 25 26 27 28 29 30 31 32 33 34 35 36 37 38 39 40 41 42 43 44 45 46 47 48 49 50
210
ASUS45 KTFX 310610
RWRMT
MONTANA REGIONAL WEATHER ROUNDUP
NATIONAL WEATHER SERVICE GREAT FALLS MT
1200 AM MDT TUE MAY 31 2016

NOTE: "FAIR" INDICATES FEW OR NO CLOUDS BELOW 12000 FEET WITH NO
SIGNIFICANT WEATHER AND/OR OBSTRUCTIONS TO VISIBILITY.

MTZ001>007-043-310700-
WEST OF THE DIVIDE

CITY           SKY/WX    TMP DP  RH WIND       PRES   REMARKS
KALISPELL      PTCLDY    45  41  86 W6        30.17R
MISSOULA       PTCLDY    47  35  63 N5        30.18R
BUTTE          CLEAR     42  28  57 S10       30.22R
MULLAN PASS    CLEAR     42  26  53 NW3       30.26R
ANACONDA         N/A     45  28  53 S6        30.20S
DEER LODGE       N/A     45  30  57 CALM      30.21R
EUREKA           N/A     46  43  87 CALM      30.20R
HAMILTON         N/A     45  34  65 SE3       30.18R
LIBBY            N/A     46  37  71 SE5       30.19R
$$

MTZ008-052>055-310700-
SOUTHWEST MONTANA

CITY           SKY/WX    TMP DP  RH WIND       PRES   REMARKS
BOZEMAN        CLEAR     45  35  68 SW6       30.18R
DILLON         CLEAR     43  28  55 S5        30.18R
W YELLOWSTONE  CLEAR     34  28  80 CALM      30.22S
ENNIS          CLEAR     50  25  37 NE13      30.23S
$$

MTZ009-010-012-014-046-048-049-054-310700-
EAST SLOPES AND CENTRAL MONTANA

CITY           SKY/WX    TMP DP  RH WIND       PRES   REMARKS
CUT BANK       CLOUDY    44  39  82 NW14      30.23R
GREAT FALLS    CLOUDY    44  38  79 N3        30.22R
MALMSTROM AFB  CLOUDY    49  40  71 W7        30.21S
HELENA         CLEAR     48  36  63 W9        30.20R
CHOTEAU          N/A     45  37  76 NW9       30.25S
$$

MTZ011-013-016-021-045-047-050-051-310700-
NORTH CENTRAL MONTANA

CITY           SKY/WX    TMP DP  RH WIND       PRES   REMARKS
HAVRE          CLOUDY    49  44  83 W17       30.10S
LEWISTOWN      CLOUDY    45  39  79 W9        30.17S
N BAR RANCH    MOCLDY    43  37  81 NW30G39   30.09R
CHINOOK          N/A     50  43  76 W14G23    30.07R
$$

MTZ017>020-022>027-061-062-310700-
NORTHEAST MONTANA

CITY           SKY/WX    TMP DP  RH WIND       PRES   REMARKS
GLASGOW        CLOUDY    49  44  83 W12       29.92F
JORDAN           N/A     46  44  93 W13       29.99F
SIDNEY         PTCLDY    49  43  80 W18       29.89F
WOLF POINT     CLOUDY    51  44  77 W12       29.91F
POPLAR           N/A     50  45  81 W12       29.90F
$$

MTZ028>42-056>058-310700-
SOUTHCENTRAL AND SOUTHEAST MONTANA

CITY           SKY/WX    TMP DP  RH WIND       PRES   REMARKS
BAKER          PTCLDY    45  42  89 W7        29.97F
BILLINGS       PTCLDY    49  37  63 W13       30.14R
LIVINGSTON     PTCLDY    46  33  60 W10       30.18S
MILES CITY     CLOUDY    51  38  60 W21G28    30.01F
FORSYTH          N/A     54  36  50 W26G41    30.03F
$$

REGIONAL REPORTS...DAKOTAS

CITY           SKY/WX    TMP DP  RH WIND       PRES   REMARKS
WILLISTON      CLOUDY    53  50  89 SW5       29.86F
MINOT          RAIN      58  55  90 N9        29.81F FOG
DICKINSON      CLEAR     46  43  89 W13       29.88S
BEACH            N/A     43  43 100 W9        29.96F
CROSBY         LGT RAIN  52  52 100 NE10      29.87F
WATFORD CITY   MOCLDY    50  50 100 W12       29.87F
BISMARCK       CLOUDY    56  54  93 W14       29.82S
GRAND FORKS    HVY RAIN  59  56  89 E20G29    29.76F FOG
FARGO          LGT RAIN  62  58  86 NE5       29.74F
BUFFALO SD       N/A     46  40  79 W16       29.93S
RAPID CITY     CLOUDY    52  41  66 NW17      30.04S
$$

REGIONAL REPORTS...WYOMING/IDAHO/WASHINGTON

CITY           SKY/WX    TMP DP  RH WIND       PRES   REMARKS
GILLETTE       CLOUDY    39  38  96 W6        30.11F
SHERIDAN       CLEAR     42  39  89 SW6       30.12F
BUFFALO WY     PTCLDY    46  41  82 CALM      30.14F
CODY           MOCLDY    48  34  57 N13       30.18S
YELLOWSTONE LA   N/A     31  24  75 CALM      30.26S
IDAHO FALLS    CLEAR     49  35  58 CALM      30.11R
SALMON         CLEAR     54  27  35 NE8       30.15S
BOISE          PTCLDY    63  33  32 W7        30.07F
SPOKANE        PTCLDY    57  34  41 SW5       30.17S
$$

REGIONAL REPORTS...ALBERTA

CITY           SKY/WX    TMP DP  RH WIND       PRES   REMARKS
EDMONTON       CLOUDY    50  43  76 NW3       30.22S
CALGARY        MOCLDY    46  39  76 N6        30.26S
LETHBRIDGE     CLEAR     45  41  87 NW12      30.24R
MEDICINE HAT   LGT RAIN  48  46  93 NW13G18   30.13S
WATERTON GATE    N/A     43  39  87 SW9         N/A
CARDSTON         N/A     46  41  81 NW5         N/A
MILK RIVER       N/A     43  41  93 NW14        N/A
$$

REGIONAL REPORTS...SASKATCHEWAN

CITY           SKY/WX    TMP DP  RH WIND       PRES   REMARKS
SWIFT CURRENT  LGT RAIN  50  50 100 N12       29.97S FOG
REGINA         LGT RAIN  54  52  94 NE9       29.92F
SASKATOON      MOCLDY    50  48  93 N7        30.04R
CYPRESS HILLS    N/A     43  41  93 NW13G22     N/A
VAL MARIE        N/A     50  48  93 NW15        N/A
ROCKGLEN         N/A     48  48 100 N5          N/A
$$




USA.gov is the U.S. government's official web portal to all federal, state and local government web resources and services.